This is the latest recevied weather packets stored in our database for station/object KC3JUG-13. If no packets are shown the sender has not sent any weather packets the latest 10 day(s).
| Time | Temp. | Humidity | Pressure | Rain* | Wind** | Luminosity | Snow |
|---|---|---|---|---|---|---|---|
| 1788525264 | 21.67° C | 92% | 1015.4 hPa | 0 mm | - | - | - |
| 1788524484 | 21.11° C | 92% | 1015.7 hPa | 0 mm | - | - | - |
| 1788523704 | 21.11° C | 93% | 1015.7 hPa | 0 mm | - | - | - |
| 1788522924 | 20.56° C | 94% | 1015.7 hPa | 0 mm | - | - | - |
| 1788522144 | 20.56° C | 95% | 1015.5 hPa | 0 mm | - | - | - |
| 1788521364 | 20° C | 95% | 1015.3 hPa | 0 mm | - | - | - |
| 1788520584 | 20° C | 96% | 1015.3 hPa | 0 mm | - | - | - |
| 1788519804 | 20° C | 95% | 1015 hPa | 0 mm | - | - | - |
| 1788519024 | 20° C | 95% | 1014.7 hPa | 0 mm | - | - | - |
| 1788518244 | 20° C | 95% | 1014.6 hPa | 0 mm | - | - | - |
| 1788517516 | 20.56° C | 94% | 1014.6 hPa | 0 mm | - | - | - |
| 1788517464 | 20.56° C | 94% | 1014.6 hPa | 0 mm | - | - | - |
| 1788516684 | 20.56° C | 94% | 1014.4 hPa | 0 mm | - | - | - |
| 1788515905 | 20.56° C | 93% | 1014.3 hPa | 0 mm | - | - | - |
| 1788515124 | 20.56° C | 93% | 1014.5 hPa | 0 mm | - | - | - |
| 1788514345 | 21.11° C | 92% | 1014.3 hPa | 0 mm | - | - | - |
| 1788513565 | 21.11° C | 92% | 1014.4 hPa | 0 mm | - | - | - |
| 1788512785 | 21.67° C | 90% | 1014.3 hPa | 0 mm | - | - | - |
| 1788512005 | 21.67° C | 89% | 1014.5 hPa | 0 mm | - | - | - |
| 1788511225 | 21.67° C | 88% | 1014.6 hPa | 0 mm | - | - | - |
| 1788510445 | 21.67° C | 88% | 1014.6 hPa | 0 mm | - | - | - |
| 1788509665 | 22.22° C | 88% | 1014.7 hPa | 0 mm | - | - | - |
| 1788508885 | 22.22° C | 88% | 1014.5 hPa | 0 mm | - | - | - |
| 1788508105 | 22.22° C | 88% | 1014.5 hPa | 0 mm | - | - | - |
| 1788507325 | 22.22° C | 88% | 1014.6 hPa | 0 mm | - | - | - |
* Rain latest hour (hover to see other rain measurements)
** Current wind speed in m/s (hover to see current wind gust speed)